Regional Weather Roundup
Issued by NWS

Home | Current Version | Previous Version | Graphics & Text | Print | Product List | Glossary On
Versions: 1 2 3 4 5 6 7 8 9 10 11 12 13 14 15 16 17 18 19 20 21 22 23 24 25 26 27 28 29 30 31 32 33 34 35 36 37 38 39 40 41 42 43 44 45 46 47 48 49 50
000
ASUS43 KLMK 262002
RWRKY
KENTUCKY REGIONAL WEATHER ROUNDUP
NATIONAL WEATHER SERVICE LOUISVILLE KY
400 PM EDT MON JUN 26 2017

NOTE "FAIR" INDICATES FEW OR NO CLOUDS BELOW 12,000 FEET
WITH NO SIGNIFICANT WEATHER AND/OR OBSTRUCTIONS TO VISIBILITY.

KYZ001>023-026-027-061>063-070>075-262100-
WESTERN AND SOUTH CENTRAL KENTUCKY

CITY           SKY/WX    TMP DP  RH WIND       PRES   REMARKS
PADUCAH        SUNNY     80  50  34 W6        30.14F
HENDERSON      SUNNY     78  48  34 N7        30.15F
OWENSBORO      SUNNY     78  47  33 N8        30.15F
HOPKINSVILLE   SUNNY     77  50  38 N9G17     30.14F
BOWLING GREEN  SUNNY     77  50  38 NW6       30.15F
GLASGOW        NOT AVBL
$$

KYZ024-025-028>034-038-045-046-053-262100-
NORTH CENTRAL KENTUCKY

CITY           SKY/WX    TMP DP  RH WIND       PRES   REMARKS
LOUISVILLE/SDF MOSUNNY   78  47  33 NW7       30.13F
LOUISVILLE/LOU MOSUNNY   78  47  33 NW10      30.13F
FORT KNOX      SUNNY     75  50  41 NW5       30.13F
$$

KYZ035>037-039>044-047>052-055>060-089>105-262100-
NORTHEAST KENTUCKY

CITY           SKY/WX    TMP DP  RH WIND       PRES   REMARKS
LEXINGTON      MOSUNNY   74  46  36 W10       30.14F
COVINGTON      PTSUNNY   74  48  39 W14G24    30.12F
FRANKFORT      PTSUNNY   77  47  34 W7        30.13F
$$

KYZ054-064>069-076>088-106>120-262100-
SOUTHEAST KENTUCKY

CITY           SKY/WX    TMP DP  RH WIND       PRES   REMARKS
JACKSON        MOSUNNY   73  49  42 VRB6      30.15S
LONDON         MOSUNNY   77  50  38 NW10      30.14F
SOMERSET       SUNNY     75  46  35 N8        30.15F
MIDDLESBORO    CLOUDY    79  50  37 W5        30.14F
MONTICELLO     CLOUDY    77  54  44 NW10      30.16F
$$





USA.gov is the U.S. government's official web portal to all federal, state and local government web resources and services.